SKYSAT-C8

Last updated on Thu Jul 03 2025 00:02:30 GMT+0000 (Coordinated Universal Time)

1 42990U 17068D 25183.62278611 .00007670 00000+0 25216-3 0 9996 2 42990 97.4094 313.3163 0001916 90.2693 269.8768 15.31822374428731
UTC large
Height (km)
Speed (km/s)
/
Latitude / Longitude
Inclination (degrees)
Orbital Period (minutes)
Azimuth
Elevation
Range (km)
Doppler Factor

Next 0 passes for location: London (51.5072 / 0.1276)

Sorry there are no passes over London.